Location: Igon
(43.1667°N, 0.2333°W)
Time: 14:33:32
(UTC+00:00)

ALOS - Pass Details

Date: 29 November 2020
Orbit: 682 x 685 km, 97.9° (Epoch: 23 January)

Event Time Altitude Azimuth Distance (km) Brightness Sun altitude
Rises 05:26:26 0° 2° (N) 3,063 5.5 -18.6°
Reaches altitude 10° 05:28:53 10° 352° (N) 2,142 4.6 -18.2°
Enters shadow 05:31:51 27° 317° (NW) 1,308 3.2 -17.6°
